TimeHST,TemperatureF,Dew PointF,Humidity,Sea Level PressureIn,VisibilityMPH,Wind Direction,Wind SpeedMPH,Gust SpeedMPH,PrecipitationIn,Events,Conditions,WindDirDegrees,DateUTC
12:57 AM,75.2,69.1,81,30.05,6.0,Calm,Calm,-,N/A,Rain,Rain,0,2013-09-07 10:57:00
1:26 AM,75.2,69.8,83,30.06,-9999.0,Calm,Calm,-,N/A,Rain,Heavy Rain,0,2013-09-07 11:26:00
1:33 AM,75.2,69.8,83,30.06,-9999.0,Variable,3.5,-,N/A,Rain,Rain,0,2013-09-07 11:33:00
1:57 AM,75.2,70.0,84,30.03,10.0,SW,3.5,-,N/A,,Mostly Cloudy,230,2013-09-07 11:57:00
2:48 AM,75.2,71.6,89,30.04,6.2,NE,5.8,-,N/A,Rain,Rain,50,2013-09-07 12:48:00
2:57 AM,75.2,71.1,87,30.02,6.0,NNE,5.8,-,N/A,Rain,Light Rain,30,2013-09-07 12:57:00
3:46 AM,75.2,71.6,89,30.03,6.2,WSW,4.6,-,N/A,Rain,Light Rain,250,2013-09-07 13:46:00
3:57 AM,75.2,71.1,87,30.01,10.0,West,6.9,-,N/A,,Overcast,260,2013-09-07 13:57:00
4:04 AM,75.2,71.6,89,30.03,6.2,West,5.8,-,N/A,,Overcast,270,2013-09-07 14:04:00
4:57 AM,75.2,72.0,90,30.02,10.0,Calm,Calm,-,N/A,,Mostly Cloudy,0,2013-09-07 14:57:00
5:04 AM,75.2,71.6,89,30.03,6.2,Calm,Calm,-,N/A,,Overcast,0,2013-09-07 15:04:00
5:13 AM,75.2,71.6,89,30.03,4.0,Calm,Calm,-,N/A,Rain,Heavy Rain,0,2013-09-07 15:13:00
5:57 AM,76.8,71.1,82,30.02,10.0,SE,3.5,-,N/A,Rain,Light Rain,140,2013-09-07 15:57:00
6:37 AM,77.0,73.4,89,30.04,6.2,East,6.9,-,N/A,,Scattered Clouds,80,2013-09-07 16:37:00
6:57 AM,77.0,73.0,88,30.02,10.0,East,8.1,-,N/A,,Mostly Cloudy,80,2013-09-07 16:57:00
7:06 AM,77.0,71.6,83,30.04,6.2,ENE,10.4,16.1,N/A,,Mostly Cloudy,70,2013-09-07 17:06:00
7:31 AM,77.0,71.6,83,30.04,6.2,ENE,10.4,-,N/A,,Mostly Cloudy,70,2013-09-07 17:31:00
7:42 AM,78.8,71.6,78,30.05,6.2,ENE,10.4,18.4,N/A,,Scattered Clouds,70,2013-09-07 17:42:00
7:50 AM,78.8,71.6,78,30.05,6.2,East,8.1,18.4,N/A,,Mostly Cloudy,80,2013-09-07 17:50:00
7:57 AM,78.8,72.0,79,30.04,10.0,East,6.9,-,N/A,,Mostly Cloudy,100,2013-09-07 17:57:00
8:19 AM,78.8,71.6,78,30.06,6.2,East,6.9,20.7,N/A,Rain,Light Rain,90,2013-09-07 18:19:00
8:57 AM,78.8,71.1,77,30.05,10.0,East,8.1,-,N/A,,Overcast,100,2013-09-07 18:57:00
9:57 AM,78.8,72.0,79,30.05,10.0,East,9.2,17.3,N/A,,Overcast,80,2013-09-07 19:57:00
10:57 AM,82.4,73.0,73,30.04,10.0,East,8.1,-,N/A,,Overcast,90,2013-09-07 20:57:00
11:07 AM,82.4,71.6,70,30.05,6.2,SE,9.2,21.9,N/A,,Mostly Cloudy,130,2013-09-07 21:07:00
11:18 AM,82.4,71.6,70,30.05,6.2,ESE,9.2,-,N/A,,Partly Cloudy,110,2013-09-07 21:18:00
11:43 AM,82.4,71.6,70,30.04,6.2,East,11.5,18.4,N/A,,Mostly Cloudy,90,2013-09-07 21:43:00
11:57 AM,82.4,72.0,71,30.03,10.0,East,10.4,17.3,N/A,,Scattered Clouds,90,2013-09-07 21:57:00
12:57 PM,84.2,72.0,67,30.01,10.0,East,6.9,-,N/A,,Mostly Cloudy,90,2013-09-07 22:57:00
1:57 PM,84.2,73.0,69,29.99,10.0,East,6.9,16.1,N/A,,Scattered Clouds,80,2013-09-07 23:57:00
2:57 PM,84.2,73.0,69,29.98,10.0,NE,11.5,16.1,N/A,,Scattered Clouds,50,2013-09-08 00:57:00
3:57 PM,84.2,72.0,67,29.97,10.0,ENE,8.1,18.4,N/A,,Scattered Clouds,60,2013-09-08 01:57:00
4:57 PM,84.2,72.0,67,29.98,10.0,ENE,8.1,-,N/A,,Mostly Cloudy,70,2013-09-08 02:57:00
5:57 PM,82.4,72.0,71,29.98,10.0,ENE,9.2,-,N/A,,Scattered Clouds,70,2013-09-08 03:57:00
6:57 PM,80.6,72.0,75,30.00,10.0,ENE,10.4,-,N/A,,Mostly Cloudy,70,2013-09-08 04:57:00
7:15 PM,77.0,71.6,83,30.02,6.2,ENE,8.1,16.1,N/A,,Mostly Cloudy,70,2013-09-08 05:15:00
7:57 PM,77.0,71.1,82,30.01,10.0,East,6.9,-,N/A,,Mostly Cloudy,80,2013-09-08 05:57:00
8:57 PM,77.0,71.1,82,30.04,10.0,East,8.1,-,N/A,,Mostly Cloudy,80,2013-09-08 06:57:00
9:57 PM,75.2,70.0,84,30.04,10.0,East,10.4,-,N/A,,Mostly Cloudy,80,2013-09-08 07:57:00
10:57 PM,75.2,71.1,87,30.04,10.0,ENE,11.5,18.4,N/A,,Mostly Cloudy,70,2013-09-08 08:57:00
11:57 PM,75.2,71.1,87,30.04,10.0,ENE,10.4,-,N/A,,Scattered Clouds,70,2013-09-08 09:57:00